This is the latest recevied weather packets stored in our database for station/object KA8OAD-10. If no packets are shown the sender has not sent any weather packets the latest 10 day(s).
| Time | Temp. | Humidity | Pressure | Rain* | Wind** | Luminosity | Snow |
|---|---|---|---|---|---|---|---|
| 1777723952 | 3.33° C | 92% | 1014.5 hPa | 0 mm | - | 58 W/m² | - |
| 1777723351 | 3.33° C | 92% | 1014.4 hPa | 0 mm | - | 58 W/m² | - |
| 1777722750 | 3.33° C | 92% | 1014.3 hPa | 0 mm | - | 46 W/m² | - |
| 1777720651 | 3.89° C | 92% | 1014.3 hPa | 0 mm | - | 0 W/m² | - |
| 1777720350 | 3.89° C | 92% | 1014.3 hPa | 0 mm | - | 0 W/m² | - |
| 1777719749 | 3.89° C | 92% | 1014.3 hPa | 0 mm | - | 0 W/m² | - |
| 1777716452 | 3.89° C | 92% | 1013.8 hPa | 0 mm | - | 0 W/m² | - |
| 1777713450 | 3.89° C | 92% | 1013.6 hPa | 0.76 mm | - | 0 W/m² | - |
| 1777711350 | 3.89° C | 92% | 1013.6 hPa | 0.25 mm | - | 0 W/m² | - |
| 1777709851 | 3.33° C | 91% | 1013.4 hPa | 0 mm | - | 0 W/m² | - |
| 1777708352 | 3.33° C | 91% | 1013.4 hPa | 0 mm | - | 0 W/m² | - |
| 1777707751 | 3.33° C | 91% | 1013.5 hPa | 0.25 mm | - | 0 W/m² | - |
| 1777707151 | 3.33° C | 91% | 1013.4 hPa | 0.25 mm | - | 0 W/m² | - |
| 1777705051 | 3.33° C | 90% | 1013.7 hPa | 1.27 mm | - | 0 W/m² | - |
| 1777704750 | 3.33° C | 90% | 1013.7 hPa | 1.27 mm | - | 0 W/m² | - |
| 1777704450 | 3.33° C | 90% | 1013.6 hPa | 1.27 mm | - | 0 W/m² | - |
| 1777704153 | 3.33° C | 90% | 1013.7 hPa | 1.27 mm | - | 0 W/m² | - |
| 1777703552 | 3.33° C | 89% | 1013.9 hPa | 1.78 mm | - | 0 W/m² | - |
| 1777703252 | 3.33° C | 89% | 1013.9 hPa | 1.78 mm | - | 0 W/m² | - |
| 1777702350 | 3.89° C | 89% | 1014 hPa | 2.29 mm | - | 0 W/m² | - |
| 1777701753 | 4.44° C | 90% | 1014.3 hPa | 1.78 mm | - | 0 W/m² | - |
| 1777701151 | 4.44° C | 90% | 1014.3 hPa | 1.78 mm | - | 0 W/m² | - |
| 1777700851 | 5° C | 90% | 1014.5 hPa | 1.27 mm | - | 0 W/m² | - |
| 1777698752 | 4.44° C | 90% | 1014.6 hPa | 0 mm | - | 0 W/m² | - |
| 1777698150 | 4.44° C | 90% | 1014.3 hPa | 0 mm | - | 0 W/m² | - |
* Rain latest hour (hover to see other rain measurements)
** Current wind speed in m/s (hover to see current wind gust speed)